This is the latest recevied weather packets stored in our database for station/object N9GKE-1. If no packets are shown the sender has not sent any weather packets the latest 10 day(s).
| Time | Temp. | Humidity | Pressure | Rain* | Wind** | Luminosity | Snow |
|---|---|---|---|---|---|---|---|
| 1778159950 | 9.44° C | 62% | 1016.3 hPa | 0 mm | - | - | - |
| 1778159495 | 9.44° C | 60% | 1016.3 hPa | 0 mm | - | - | - |
| 1778159350 | 9.44° C | 62% | 1016.3 hPa | 0 mm | - | - | - |
| 1778158895 | 8.89° C | 65% | 1016.4 hPa | 0 mm | - | - | - |
| 1778158751 | 8.33° C | 65% | 1016.4 hPa | 0 mm | - | - | - |
| 1778158295 | 7.78° C | 69% | 1016.3 hPa | 0 mm | - | - | - |
| 1778158151 | 7.78° C | 72% | 1016.3 hPa | 0 mm | - | - | - |
| 1778157695 | 7.22° C | 72% | 1016.3 hPa | 0 mm | - | - | - |
| 1778157549 | 7.22° C | 71% | 1016.3 hPa | 0 mm | - | - | - |
| 1778157095 | 6.67° C | 77% | 1016.2 hPa | 0 mm | - | - | - |
| 1778156950 | 6.11° C | 79% | 1016.2 hPa | 0 mm | - | - | - |
| 1778156495 | 5.56° C | 80% | 1016.1 hPa | 0 mm | - | - | - |
| 1778156349 | 5.56° C | 81% | 1016.1 hPa | 0 mm | - | - | - |
| 1778155895 | 5.56° C | 85% | 1016.1 hPa | 0 mm | - | - | - |
| 1778155749 | 5.56° C | 86% | 1016.1 hPa | 0 mm | - | - | - |
| 1778155298 | 4.44° C | 91% | 1016.1 hPa | 0 mm | - | - | - |
| 1778155150 | 4.44° C | 92% | 1016.1 hPa | 0 mm | - | - | - |
| 1778154694 | 3.33° C | 92% | 1016.1 hPa | 0 mm | - | - | - |
| 1778154549 | 3.33° C | 92% | 1016 hPa | 0 mm | - | - | - |
| 1778154094 | 3.33° C | 92% | 1016 hPa | 0 mm | - | - | - |
| 1778153949 | 2.78° C | 92% | 1016 hPa | 0 mm | - | - | - |
| 1778153495 | 2.78° C | 92% | 1015.9 hPa | 0 mm | - | - | - |
| 1778152894 | 2.78° C | 92% | 1015.8 hPa | 0 mm | - | - | - |
| 1778152294 | 2.78° C | 91% | 1015.8 hPa | 0 mm | - | - | - |
| 1778152150 | 2.78° C | 92% | 1015.8 hPa | 0 mm | - | - | - |
* Rain latest hour (hover to see other rain measurements)
** Current wind speed in m/s (hover to see current wind gust speed)